| time (UTC) | temp C | wind direction | speed KPH | gust KPH | rain 1hr cm | rain 24hr cm | rain mn cm | humidity % | barometer mb |
| 20260506200007 | 8 | 47 | 0.0 | 0.0 | 0.00 | 0.00 | 0.00 | 12 | 1011.5 |
| 20260506195806 | 8 | 54 | 0.0 | 0.0 | 0.00 | 0.00 | 0.00 | 13 | 1011.5 |
| 20260506195606 | 8 | 38 | 0.0 | 4.8 | 0.00 | 0.00 | 0.00 | 14 | 1011.5 |
| 20260506195406 | 8 | 72 | 0.0 | 4.8 | 0.00 | 0.00 | 0.00 | 15 | 1011.5 |
| 20260506195206 | 8 | 68 | 0.0 | 4.8 | 0.00 | 0.00 | 0.00 | 15 | 1011.5 |
| 20260506195007 | 8 | 0 | 0.0 | 4.8 | 0.00 | 0.00 | 0.00 | 15 | 1011.5 |
| 20260506194805 | 8 | 69 | 0.0 | 4.8 | 0.00 | 0.00 | 0.00 | 16 | 1011.5 |
| 20260506194606 | 9 | 72 | 0.0 | 0.0 | 0.00 | 0.00 | 0.00 | 16 | 1011.5 |
| 20260506194405 | 9 | 63 | 0.0 | 1.6 | 0.00 | 0.00 | 0.00 | 17 | 1011.4 |
| 20260506194206 | 9 | 0 | 0.0 | 1.6 | 0.00 | 0.00 | 0.00 | 17 | 1011.4 |
| 20260506194005 | 9 | 0 | 0.0 | 1.6 | 0.00 | 0.00 | 0.00 | 18 | 1011.4 |
| 20260506193805 | 9 | 78 | 0.0 | 1.6 | 0.00 | 0.00 | 0.00 | 18 | 1011.3 |
| 20260506193605 | 9 | 65 | 0.0 | 1.6 | 0.00 | 0.00 | 0.00 | 18 | 1011.3 |
| 20260506193405 | 9 | 63 | 0.0 | 0.0 | 0.00 | 0.00 | 0.00 | 18 | 1011.3 |
| 20260506193205 | 9 | 62 | 0.0 | 1.6 | 0.00 | 0.00 | 0.00 | 19 | 1011.3 |
| 20260506193008 | 9 | 0 | 0.0 | 1.6 | 0.00 | 0.00 | 0.00 | 19 | 1011.2 |
| 20260506192805 | 9 | 66 | 0.0 | 1.6 | 0.00 | 0.00 | 0.00 | 21 | 1011.2 |
| 20260506192605 | 9 | 0 | 0.0 | 1.6 | 0.00 | 0.00 | 0.00 | 22 | 1011.3 |
| 20260506192403 | 9 | 58 | 0.0 | 1.6 | 0.00 | 0.00 | 0.00 | 22 | 1011.2 |
| 20260506192202 | 10 | 0 | 0.0 | 1.6 | 0.00 | 0.00 | 0.00 | 23 | 1011.2 |
| 20260506192002 | 10 | 66 | 0.0 | 8.0 | 0.00 | 0.00 | 0.00 | 23 | 1011.1 |
| 20260506191803 | 10 | 58 | 0.0 | 8.0 | 0.00 | 0.00 | 0.00 | 24 | 1011.1 |
| 20260506191603 | 10 | 0 | 0.0 | 8.0 | 0.00 | 0.00 | 0.00 | 25 | 1011.0 |
| 20260506191403 | 10 | 0 | 0.0 | 8.0 | 0.00 | 0.00 | 0.00 | 28 | 1011.0 |
| 20260506191202 | 10 | 42 | 1.6 | 8.0 | 0.00 | 0.00 | 0.00 | 28 | 1011.0 |
| 20260506191003 | 10 | 0 | 0.0 | 1.6 | 0.00 | 0.00 | 0.00 | 28 | 1011.0 |
| 20260506190802 | 10 | 68 | 0.0 | 1.6 | 0.00 | 0.00 | 0.00 | 30 | 1011.0 |
| 20260506190602 | 10 | 49 | 0.0 | 3.2 | 0.00 | 0.00 | 0.00 | 32 | 1010.9 |
| 20260506190402 | 10 | 0 | 0.0 | 3.2 | 0.00 | 0.00 | 0.00 | 32 | 1010.9 |
| 20260506190203 | 10 | 63 | 0.0 | 3.2 | 0.00 | 0.00 | 0.00 | 32 | 1010.9 |
| 20260506190005 | 10 | 32 | 0.0 | 3.2 | 0.00 | 0.00 | 0.00 | 32 | 1010.8 |
| 20260506185803 | 10 | 54 | 0.0 | 3.2 | 0.00 | 0.00 | 0.00 | 34 | 1010.8 |
| 20260506185603 | 10 | 49 | 0.0 | 11.3 | 0.00 | 0.00 | 0.00 | 38 | 1010.8 |
| 20260506185403 | 10 | 66 | 0.0 | 11.3 | 0.00 | 0.00 | 0.00 | 38 | 1010.8 |
| 20260506185202 | 10 | 72 | 0.0 | 11.3 | 0.00 | 0.00 | 0.00 | 38 | 1010.8 |
| 20260506185002 | 10 | 73 | 0.0 | 16.1 | 0.00 | 0.00 | 0.00 | 40 | 1010.8 |
| 20260506184801 | 10 | 79 | 3.2 | 16.1 | 0.00 | 0.00 | 0.00 | 42 | 1010.8 |
| 20260506184602 | 10 | 71 | 1.6 | 16.1 | 0.00 | 0.00 | 0.00 | 43 | 1010.8 |
| 20260506184402 | 10 | 62 | 1.6 | 16.1 | 0.00 | 0.00 | 0.00 | 44 | 1010.7 |
| 20260506184203 | 10 | 55 | 4.8 | 16.1 | 0.00 | 0.00 | 0.00 | 45 | 1010.7 |
| 20260506184001 | 10 | 71 | 0.0 | 6.4 | 0.00 | 0.00 | 0.00 | 45 | 1010.8 |
| 20260506183802 | 10 | 37 | 1.6 | 6.4 | 0.00 | 0.00 | 0.00 | 46 | 1010.8 |
| 20260506183601 | 10 | 0 | 1.6 | 14.5 | 0.00 | 0.00 | 0.00 | 47 | 1010.8 |
| 20260506183402 | 10 | 56 | 1.6 | 14.5 | 0.00 | 0.00 | 0.00 | 48 | 1010.6 |
| 20260506183202 | 10 | 75 | 0.0 | 14.5 | 0.00 | 0.00 | 0.00 | 48 | 1010.7 |
| 20260506183005 | 11 | 71 | 0.0 | 14.5 | 0.00 | 0.00 | 0.00 | 50 | 1010.7 |
| 20260506182803 | 11 | 65 | 4.8 | 14.5 | 0.00 | 0.00 | 0.00 | 51 | 1010.6 |
| 20260506182602 | 11 | 30 | 4.8 | 14.5 | 0.00 | 0.00 | 0.00 | 52 | 1010.6 |
| 20260506182402 | 11 | 75 | 4.8 | 11.3 | 0.00 | 0.00 | 0.00 | 53 | 1010.6 |
| 20260506182203 | 11 | 37 | 3.2 | 11.3 | 0.00 | 0.00 | 0.00 | 55 | 1010.6 |
| 20260506182006 | 11 | 56 | 3.2 | 20.9 | 0.00 | 0.00 | 0.00 | 55 | 1010.6 |
| 20260506181806 | 11 | 66 | 3.2 | 20.9 | 0.00 | 0.00 | 0.00 | 58 | 1010.6 |
| 20260506181605 | 11 | 71 | 3.2 | 20.9 | 0.00 | 0.00 | 0.00 | 58 | 1010.5 |
| 20260506181407 | 11 | 71 | 9.7 | 20.9 | 0.00 | 0.00 | 0.00 | 58 | 1010.4 |
| 20260506181206 | 11 | 85 | 12.9 | 20.9 | 0.00 | 0.00 | 0.00 | 59 | 1010.5 |
| 20260506181007 | 11 | 63 | 1.6 | 16.1 | 0.00 | 0.00 | 0.00 | 60 | 1010.5 |
| 20260506180805 | 11 | 62 | 1.6 | 16.1 | 0.00 | 0.00 | 0.00 | 61 | 1010.4 |
| 20260506180602 | 11 | 72 | 3.2 | 16.1 | 0.00 | 0.00 | 0.00 | 61 | 1010.3 |
| 20260506180405 | 11 | 54 | 6.4 | 16.1 | 0.00 | 0.00 | 0.00 | 61 | 1010.3 |
| 20260506180206 | 11 | 35 | 8.0 | 14.5 | 0.00 | 0.00 | 0.00 | 61 | 1010.3 |
| 20260506180007 | 11 | 54 | 3.2 | 14.5 | 0.00 | 0.00 | 0.00 | 62 | 1010.4 |
| 20260506175806 | 11 | 68 | 1.6 | 8.0 | 0.00 | 0.00 | 0.00 | 62 | 1010.4 |
| 20260506175606 | 11 | 0 | 1.6 | 17.7 | 0.00 | 0.00 | 0.00 | 62 | 1010.3 |
| 20260506175405 | 11 | 0 | 1.6 | 17.7 | 0.00 | 0.00 | 0.00 | 62 | 1010.2 |
| 20260506175204 | 12 | 0 | 3.2 | 20.9 | 0.00 | 0.00 | 0.00 | 62 | 1010.2 |
| 20260506175006 | 12 | 62 | 1.6 | 20.9 | 0.00 | 0.00 | 0.00 | 63 | 1010.2 |
| 20260506174805 | 12 | 72 | 4.8 | 20.9 | 0.00 | 0.00 | 0.00 | 63 | 1010.1 |
| 20260506174605 | 12 | 39 | 1.6 | 20.9 | 0.00 | 0.00 | 0.00 | 63 | 1010.1 |
| 20260506174405 | 12 | 76 | 9.7 | 20.9 | 0.00 | 0.00 | 0.00 | 63 | 1010.1 |
| 20260506174206 | 12 | 73 | 3.2 | 14.5 | 0.00 | 0.00 | 0.00 | 63 | 1010.1 |
| 20260506174006 | 12 | 58 | 4.8 | 17.7 | 0.00 | 0.00 | 0.00 | 63 | 1010.0 |
| 20260506173810 | 12 | 58 | 3.2 | 17.7 | 0.00 | 0.00 | 0.00 | 63 | 1010.0 |
| 20260506173606 | 12 | 58 | 1.6 | 17.7 | 0.00 | 0.00 | 0.00 | 63 | 1010.0 |
| 20260506173404 | 12 | 0 | 0.0 | 17.7 | 0.00 | 0.00 | 0.00 | 63 | 1010.0 |
| 20260506173205 | 12 | 59 | 6.4 | 17.7 | 0.00 | 0.00 | 0.00 | 63 | 1010.0 |
| 20260506173008 | 12 | 79 | 8.0 | 14.5 | 0.00 | 0.00 | 0.00 | 63 | 1010.0 |
| 20260506172806 | 12 | 55 | 4.8 | 17.7 | 0.00 | 0.00 | 0.00 | 63 | 1009.9 |
| 20260506172605 | 12 | 72 | 3.2 | 17.7 | 0.00 | 0.00 | 0.00 | 63 | 1009.9 |
| 20260506172404 | 12 | 0 | 4.8 | 17.7 | 0.00 | 0.00 | 0.00 | 63 | 1009.9 |
| 20260506172207 | 12 | 75 | 4.8 | 17.7 | 0.00 | 0.00 | 0.00 | 63 | 1009.9 |
| 20260506172006 | 12 | 0 | 9.7 | 17.7 | 0.00 | 0.00 | 0.00 | 63 | 1009.9 |
| 20260506171804 | 12 | 0 | 6.4 | 17.7 | 0.00 | 0.00 | 0.00 | 63 | 1009.8 |
| 20260506171605 | 12 | 76 | 9.7 | 19.3 | 0.00 | 0.00 | 0.00 | 63 | 1009.8 |
| 20260506171405 | 12 | 0 | 6.4 | 19.3 | 0.00 | 0.00 | 0.00 | 63 | 1009.9 |
| 20260506171206 | 12 | 54 | 4.8 | 19.3 | 0.00 | 0.00 | 0.00 | 63 | 1009.9 |
| 20260506171006 | 12 | 0 | 1.6 | 19.3 | 0.00 | 0.00 | 0.00 | 63 | 1009.9 |
| 20260506170805 | 12 | 0 | 6.4 | 19.3 | 0.00 | 0.00 | 0.00 | 63 | 1009.8 |
| 20260506170605 | 12 | 66 | 1.6 | 19.3 | 0.00 | 0.00 | 0.00 | 63 | 1009.8 |
| 20260506170405 | 12 | 0 | 4.8 | 19.3 | 0.00 | 0.00 | 0.00 | 63 | 1009.8 |
| 20260506170205 | 12 | 0 | 6.4 | 19.3 | 0.00 | 0.00 | 0.00 | 63 | 1009.8 |
| 20260506170006 | 12 | 0 | 3.2 | 19.3 | 0.00 | 0.00 | 0.00 | 63 | 1009.7 |
| 20260506165805 | 12 | 82 | 6.4 | 24.1 | 0.00 | 0.00 | 0.00 | 63 | 1009.7 |
| 20260506165606 | 12 | 0 | 4.8 | 24.1 | 0.00 | 0.00 | 0.00 | 63 | 1009.7 |
| 20260506165405 | 12 | 63 | 4.8 | 24.1 | 0.00 | 0.00 | 0.00 | 63 | 1009.7 |
| 20260506165205 | 12 | 0 | 11.3 | 24.1 | 0.00 | 0.00 | 0.00 | 63 | 1009.6 |
| 20260506165006 | 12 | 0 | 17.7 | 24.1 | 0.00 | 0.00 | 0.00 | 63 | 1009.6 |
| 20260506164806 | 12 | 65 | 12.9 | 19.3 | 0.00 | 0.00 | 0.00 | 63 | 1009.7 |
| 20260506164604 | 12 | 55 | 9.7 | 19.3 | 0.00 | 0.00 | 0.00 | 62 | 1009.7 |
| 20260506164404 | 12 | 71 | 9.7 | 19.3 | 0.00 | 0.00 | 0.00 | 62 | 1009.6 |
| 20260506164206 | 13 | 0 | 4.8 | 19.3 | 0.00 | 0.00 | 0.00 | 62 | 1009.8 |
| 20260506164005 | 13 | 0 | 8.0 | 19.3 | 0.00 | 0.00 | 0.00 | 62 | 1009.7 |
| 20260506163805 | 13 | 62 | 11.3 | 20.9 | 0.00 | 0.00 | 0.00 | 62 | 1009.6 |
| 20260506163605 | 13 | 42 | 11.3 | 25.7 | 0.00 | 0.00 | 0.00 | 62 | 1009.7 |
| 20260506163405 | 13 | 63 | 9.7 | 25.7 | 0.00 | 0.00 | 0.00 | 62 | 1009.7 |
| 20260506163206 | 13 | 0 | 8.0 | 25.7 | 0.00 | 0.00 | 0.00 | 61 | 1009.7 |
| 20260506163007 | 13 | 114 | 11.3 | 25.7 | 0.00 | 0.00 | 0.00 | 62 | 1009.6 |
| 20260506162805 | 13 | 61 | 14.5 | 25.7 | 0.00 | 0.00 | 0.00 | 62 | 1009.6 |
| 20260506162605 | 13 | 68 | 8.0 | 20.9 | 0.00 | 0.00 | 0.00 | 62 | 1009.6 |
| 20260506162406 | 13 | 65 | 11.3 | 20.9 | 0.00 | 0.00 | 0.00 | 62 | 1009.7 |
| 20260506162205 | 13 | 0 | 9.7 | 20.9 | 0.00 | 0.00 | 0.00 | 62 | 1009.7 |
| 20260506162006 | 13 | 72 | 11.3 | 25.7 | 0.00 | 0.00 | 0.00 | 62 | 1009.7 |
| 20260506161805 | 13 | 0 | 14.5 | 25.7 | 0.00 | 0.00 | 0.00 | 62 | 1009.7 |
| 20260506161606 | 13 | 71 | 12.9 | 25.7 | 0.00 | 0.00 | 0.00 | 61 | 1009.6 |
| 20260506161406 | 13 | 0 | 11.3 | 25.7 | 0.00 | 0.00 | 0.00 | 62 | 1009.7 |
| 20260506161201 | 13 | 58 | 16.1 | 25.7 | 0.00 | 0.00 | 0.00 | 62 | 1009.7 |
| 20260506161007 | 13 | 68 | 14.5 | 25.7 | 0.00 | 0.00 | 0.00 | 62 | 1009.7 |
| 20260506160806 | 13 | 99 | 11.3 | 25.7 | 0.00 | 0.00 | 0.00 | 62 | 1009.6 |
| 20260506160605 | 13 | 0 | 6.4 | 20.9 | 0.00 | 0.00 | 0.00 | 62 | 1009.6 |
| 20260506160405 | 13 | 0 | 9.7 | 20.9 | 0.00 | 0.00 | 0.00 | 62 | 1009.6 |
| 20260506160205 | 13 | 0 | 11.3 | 20.9 | 0.00 | 0.00 | 0.00 | 62 | 1009.6 |
| 20260506160007 | 13 | 69 | 12.9 | 22.5 | 0.00 | 0.00 | 0.00 | 62 | 1009.6 |
| 20260506155806 | 13 | 0 | 8.0 | 24.1 | 0.00 | 0.00 | 0.00 | 62 | 1009.6 |
| 20260506155604 | 13 | 0 | 8.0 | 24.1 | 0.00 | 0.00 | 0.00 | 62 | 1009.6 |
| 20260506155405 | 13 | 79 | 12.9 | 24.1 | 0.00 | 0.00 | 0.00 | 62 | 1009.7 |
| 20260506155205 | 13 | 0 | 19.3 | 24.1 | 0.00 | 0.00 | 0.00 | 62 | 1009.6 |
| 20260506155006 | 13 | 0 | 16.1 | 24.1 | 0.00 | 0.00 | 0.00 | 62 | 1009.7 |
| 20260506154805 | 13 | 66 | 12.9 | 25.7 | 0.00 | 0.00 | 0.00 | 62 | 1009.7 |
| 20260506154606 | 13 | 76 | 8.0 | 25.7 | 0.00 | 0.00 | 0.00 | 62 | 1009.7 |
| 20260506154406 | 13 | 68 | 11.3 | 25.7 | 0.00 | 0.00 | 0.00 | 62 | 1009.6 |
| 20260506154206 | 13 | 114 | 12.9 | 25.7 | 0.00 | 0.00 | 0.00 | 62 | 1009.6 |
| 20260506154006 | 13 | 68 | 17.7 | 25.7 | 0.00 | 0.00 | 0.00 | 63 | 1009.6 |
| 20260506153805 | 13 | 72 | 14.5 | 25.7 | 0.00 | 0.00 | 0.00 | 63 | 1009.6 |
| 20260506153539 | 13 | 62 | 12.9 | 25.7 | 0.00 | 0.00 | 0.00 | 62 | 1009.6 |
| 20260506153337 | 13 | 79 | 9.7 | 22.5 | 0.00 | 0.00 | 0.00 | 62 | 1009.6 |
| 20260506153138 | 13 | 0 | 11.3 | 22.5 | 0.00 | 0.00 | 0.00 | 62 | 1009.6 |
| 20260506152937 | 13 | 107 | 9.7 | 25.7 | 0.00 | 0.00 | 0.00 | 63 | 1009.6 |
| 20260506152738 | 13 | 59 | 8.0 | 25.7 | 0.00 | 0.00 | 0.00 | 62 | 1009.6 |
| 20260506152539 | 13 | 0 | 9.7 | 25.7 | 0.00 | 0.00 | 0.00 | 62 | 1009.5 |
| 20260506152337 | 13 | 65 | 16.1 | 25.7 | 0.00 | 0.00 | 0.00 | 61 | 1009.6 |
| 20260506152137 | 13 | 0 | 19.3 | 25.7 | 0.00 | 0.00 | 0.00 | 62 | 1009.6 |
| 20260506151937 | 13 | 106 | 6.4 | 22.5 | 0.00 | 0.00 | 0.00 | 61 | 1009.5 |
| 20260506151737 | 14 | 68 | 4.8 | 22.5 | 0.00 | 0.00 | 0.00 | 62 | 1009.6 |
| 20260506151539 | 14 | 56 | 4.8 | 24.1 | 0.00 | 0.00 | 0.00 | 62 | 1009.5 |
| 20260506151338 | 14 | 72 | 12.9 | 24.1 | 0.00 | 0.00 | 0.00 | 62 | 1009.6 |
| 20260506151138 | 14 | 71 | 9.7 | 24.1 | 0.00 | 0.00 | 0.00 | 61 | 1009.6 |
| 20260506150937 | 14 | 0 | 4.8 | 24.1 | 0.00 | 0.00 | 0.00 | 61 | 1009.6 |
| 20260506150737 | 14 | 66 | 12.9 | 25.7 | 0.00 | 0.00 | 0.00 | 60 | 1009.6 |
| 20260506150539 | 14 | 61 | 11.3 | 25.7 | 0.00 | 0.00 | 0.00 | 60 | 1009.5 |
| 20260506150336 | 14 | 0 | 11.3 | 25.7 | 0.00 | 0.00 | 0.00 | 61 | 1009.5 |
| 20260506150137 | 14 | 0 | 9.7 | 25.7 | 0.00 | 0.00 | 0.00 | 60 | 1009.5 |
| 20260506145937 | 14 | 0 | 12.9 | 25.7 | 0.00 | 0.00 | 0.00 | 62 | 1009.5 |
| 20260506145738 | 14 | 0 | 16.1 | 25.7 | 0.00 | 0.00 | 0.00 | 61 | 1009.5 |
| 20260506145539 | 14 | 82 | 12.9 | 25.7 | 0.00 | 0.00 | 0.00 | 62 | 1009.4 |
| 20260506145338 | 14 | 0 | 12.9 | 27.4 | 0.00 | 0.00 | 0.00 | 61 | 1009.4 |
| 20260506145140 | 14 | 79 | 16.1 | 30.6 | 0.00 | 0.00 | 0.00 | 61 | 1009.4 |
| 20260506144940 | 14 | 0 | 12.9 | 33.8 | 0.00 | 0.00 | 0.00 | 61 | 1009.5 |
| 20260506144740 | 14 | 71 | 12.9 | 33.8 | 0.00 | 0.00 | 0.00 | 61 | 1009.5 |
| 20260506144541 | 14 | 82 | 12.9 | 33.8 | 0.00 | 0.00 | 0.00 | 61 | 1009.5 |
| 20260506144340 | 14 | 51 | 20.9 | 33.8 | 0.00 | 0.00 | 0.00 | 62 | 1009.5 |
| 20260506144139 | 14 | 92 | 22.5 | 33.8 | 0.00 | 0.00 | 0.00 | 62 | 1009.4 |
| 20260506143939 | 13 | 79 | 14.5 | 27.4 | 0.00 | 0.00 | 0.00 | 62 | 1009.5 |
| 20260506143740 | 13 | 71 | 14.5 | 27.4 | 0.00 | 0.00 | 0.00 | 62 | 1009.3 |
| 20260506143541 | 13 | 0 | 14.5 | 27.4 | 0.00 | 0.00 | 0.00 | 62 | 1009.3 |
| 20260506143334 | 13 | 71 | 17.7 | 30.6 | 0.00 | 0.00 | 0.00 | 62 | 1009.3 |
| 20260506143131 | 13 | 80 | 17.7 | 30.6 | 0.00 | 0.00 | 0.00 | 63 | 1009.2 |
| 20260506142931 | 13 | 32 | 9.7 | 30.6 | 0.00 | 0.00 | 0.00 | 63 | 1009.2 |
| 20260506142731 | 13 | 0 | 11.3 | 30.6 | 0.00 | 0.00 | 0.00 | 63 | 1009.3 |
| 20260506142531 | 13 | 97 | 16.1 | 30.6 | 0.00 | 0.00 | 0.00 | 63 | 1009.3 |
| 20260506142331 | 13 | 72 | 8.0 | 25.7 | 0.00 | 0.00 | 0.00 | 63 | 1009.3 |
| 20260506142131 | 13 | 78 | 11.3 | 25.7 | 0.00 | 0.00 | 0.00 | 63 | 1009.4 |
| 20260506141931 | 13 | 0 | 8.0 | 24.1 | 0.00 | 0.00 | 0.00 | 63 | 1009.4 |
| 20260506141731 | 13 | 111 | 16.1 | 25.7 | 0.00 | 0.00 | 0.00 | 63 | 1009.4 |
| 20260506141531 | 13 | 0 | 11.3 | 25.7 | 0.00 | 0.00 | 0.00 | 63 | 1009.4 |
| 20260506141332 | 13 | 63 | 19.3 | 25.7 | 0.00 | 0.00 | 0.00 | 63 | 1009.3 |
| 20260506141131 | 13 | 0 | 12.9 | 25.7 | 0.00 | 0.00 | 0.00 | 63 | 1009.4 |
| 20260506140934 | 13 | 0 | 17.7 | 25.7 | 0.00 | 0.00 | 0.00 | 63 | 1009.3 |
| 20260506140735 | 13 | 103 | 9.7 | 24.1 | 0.00 | 0.00 | 0.00 | 63 | 1009.3 |
| 20260506140534 | 13 | 0 | 8.0 | 24.1 | 0.00 | 0.00 | 0.00 | 63 | 1009.4 |
| 20260506140329 | 13 | 66 | 11.3 | 24.1 | 0.00 | 0.00 | 0.00 | 63 | 1009.4 |
| 20260506140106 | 13 | 61 | 16.1 | 24.1 | 0.00 | 0.00 | 0.00 | 63 | 1009.3 |
| 20260506135905 | 13 | 61 | 14.5 | 24.1 | 0.00 | 0.00 | 0.00 | 63 | 1009.4 |
| 20260506135705 | 13 | 66 | 14.5 | 30.6 | 0.00 | 0.00 | 0.00 | 63 | 1009.4 |
| 20260506135507 | 13 | 102 | 9.7 | 30.6 | 0.00 | 0.00 | 0.00 | 63 | 1009.4 |
| 20260506135306 | 13 | 0 | 17.7 | 30.6 | 0.00 | 0.00 | 0.00 | 63 | 1009.3 |
| 20260506135105 | 13 | 0 | 16.1 | 30.6 | 0.00 | 0.00 | 0.00 | 62 | 1009.4 |
| 20260506134906 | 13 | 76 | 16.1 | 30.6 | 0.00 | 0.00 | 0.00 | 62 | 1009.4 |
| 20260506134705 | 13 | 75 | 11.3 | 27.4 | 0.00 | 0.00 | 0.00 | 62 | 1009.3 |
| 20260506134506 | 14 | 104 | 16.1 | 27.4 | 0.00 | 0.00 | 0.00 | 62 | 1009.3 |
| 20260506134305 | 14 | 76 | 11.3 | 27.4 | 0.00 | 0.00 | 0.00 | 62 | 1009.3 |
| 20260506134105 | 14 | 69 | 9.7 | 27.4 | 0.00 | 0.00 | 0.00 | 62 | 1009.3 |
| 20260506133906 | 14 | 0 | 9.7 | 30.6 | 0.00 | 0.00 | 0.00 | 62 | 1009.3 |
| 20260506133705 | 14 | 0 | 14.5 | 30.6 | 0.00 | 0.00 | 0.00 | 62 | 1009.2 |
| 20260506133505 | 14 | 0 | 12.9 | 33.8 | 0.00 | 0.00 | 0.00 | 62 | 1009.2 |
| 20260506133306 | 14 | 63 | 14.5 | 37.0 | 0.00 | 0.00 | 0.00 | 62 | 1009.2 |
| 20260506133105 | 14 | 0 | 24.1 | 37.0 | 0.00 | 0.00 | 0.00 | 62 | 1009.2 |
| 20260506132906 | 14 | 75 | 20.9 | 37.0 | 0.00 | 0.00 | 0.00 | 62 | 1009.2 |
| 20260506132706 | 14 | 0 | 25.7 | 37.0 | 0.00 | 0.00 | 0.00 | 62 | 1009.1 |
| 20260506132505 | 14 | 58 | 20.9 | 37.0 | 0.00 | 0.00 | 0.00 | 62 | 1009.1 |
| 20260506132307 | 14 | 0 | 9.7 | 29.0 | 0.00 | 0.00 | 0.00 | 62 | 1009.1 |
| 20260506132105 | 14 | 59 | 17.7 | 29.0 | 0.00 | 0.00 | 0.00 | 62 | 1009.1 |
| 20260506131835 | 14 | 66 | 14.5 | 30.6 | 0.00 | 0.00 | 0.00 | 62 | 1009.1 |
| 20260506131635 | 14 | 0 | 16.1 | 30.6 | 0.00 | 0.00 | 0.00 | 62 | 1009.1 |
| 20260506131434 | 14 | 0 | 17.7 | 30.6 | 0.00 | 0.00 | 0.00 | 62 | 1009.1 |
| 20260506131235 | 14 | 72 | 12.9 | 30.6 | 0.00 | 0.00 | 0.00 | 62 | 1009.2 |
| 20260506131035 | 14 | 68 | 16.1 | 30.6 | 0.00 | 0.00 | 0.00 | 62 | 1009.2 |
| 20260506130835 | 14 | 54 | 16.1 | 30.6 | 0.00 | 0.00 | 0.00 | 62 | 1009.2 |
| 20260506130634 | 14 | 78 | 16.1 | 30.6 | 0.00 | 0.00 | 0.00 | 62 | 1009.1 |
| 20260506130434 | 14 | 0 | 16.1 | 30.6 | 0.00 | 0.00 | 0.00 | 62 | 1009.2 |
| 20260506130234 | 14 | 0 | 19.3 | 30.6 | 0.00 | 0.00 | 0.00 | 62 | 1009.3 |
| 20260506130034 | 14 | 71 | 20.9 | 30.6 | 0.00 | 0.00 | 0.00 | 62 | 1009.1 |
| 20260506125834 | 14 | 66 | 16.1 | 30.6 | 0.00 | 0.00 | 0.00 | 62 | 1009.1 |
| 20260506125635 | 14 | 93 | 19.3 | 30.6 | 0.00 | 0.00 | 0.00 | 62 | 1009.1 |
| 20260506125435 | 14 | 92 | 17.7 | 30.6 | 0.00 | 0.00 | 0.00 | 62 | 1009.0 |
| 20260506125234 | 14 | 65 | 19.3 | 30.6 | 0.00 | 0.00 | 0.00 | 62 | 1009.1 |
| 20260506125034 | 14 | 0 | 20.9 | 30.6 | 0.00 | 0.00 | 0.00 | 62 | 1009.0 |
| 20260506124834 | 14 | 0 | 20.9 | 30.6 | 0.00 | 0.00 | 0.00 | 62 | 1009.1 |
| 20260506124635 | 14 | 0 | 19.3 | 32.2 | 0.00 | 0.00 | 0.00 | 62 | 1009.0 |
| 20260506124435 | 14 | 0 | 17.7 | 32.2 | 0.00 | 0.00 | 0.00 | 62 | 1009.1 |
| 20260506124234 | 13 | 59 | 19.3 | 32.2 | 0.00 | 0.00 | 0.00 | 62 | 1009.1 |
| 20260506124035 | 13 | 100 | 19.3 | 32.2 | 0.00 | 0.00 | 0.00 | 62 | 1009.0 |
| 20260506123833 | 13 | 93 | 29.0 | 32.2 | 0.00 | 0.00 | 0.00 | 62 | 1009.0 |
| 20260506123635 | 13 | 72 | 25.7 | 32.2 | 0.00 | 0.00 | 0.00 | 62 | 1008.9 |
| 20260506123433 | 13 | 54 | 27.4 | 32.2 | 0.00 | 0.00 | 0.00 | 62 | 1008.9 |
| 20260506123234 | 13 | 75 | 24.1 | 29.0 | 0.00 | 0.00 | 0.00 | 62 | 1008.9 |
| 20260506123034 | 13 | 79 | 22.5 | 29.0 | 0.00 | 0.00 | 0.00 | 62 | 1008.9 |
| 20260506122834 | 13 | 107 | 20.9 | 27.4 | 0.00 | 0.00 | 0.00 | 62 | 1008.9 |
| 20260506122634 | 13 | 79 | 20.9 | 27.4 | 0.00 | 0.00 | 0.00 | 62 | 1008.9 |
| 20260506122433 | 14 | 96 | 14.5 | 27.4 | 0.00 | 0.00 | 0.00 | 62 | 1008.8 |
| 20260506122234 | 14 | 0 | 12.9 | 27.4 | 0.00 | 0.00 | 0.00 | 63 | 1008.8 |
| 20260506122033 | 14 | 0 | 16.1 | 27.4 | 0.00 | 0.00 | 0.00 | 62 | 1009.0 |
| 20260506121833 | 14 | 0 | 16.1 | 27.4 | 0.00 | 0.00 | 0.00 | 62 | 1008.8 |
| 20260506121633 | 14 | 59 | 14.5 | 27.4 | 0.00 | 0.00 | 0.00 | 62 | 1008.9 |
| 20260506121433 | 14 | 75 | 9.7 | 32.2 | 0.00 | 0.00 | 0.00 | 62 | 1009.0 |
| 20260506121233 | 14 | 0 | 11.3 | 32.2 | 0.00 | 0.00 | 0.00 | 62 | 1008.9 |
| 20260506121033 | 14 | 66 | 16.1 | 32.2 | 0.00 | 0.00 | 0.00 | 62 | 1008.9 |
| 20260506120833 | 14 | 0 | 19.3 | 32.2 | 0.00 | 0.00 | 0.00 | 62 | 1009.0 |
| 20260506120633 | 14 | 69 | 22.5 | 32.2 | 0.00 | 0.00 | 0.00 | 62 | 1008.9 |
| 20260506120433 | 14 | 0 | 20.9 | 27.4 | 0.00 | 0.00 | 0.00 | 62 | 1008.9 |
| 20260506120233 | 14 | 0 | 16.1 | 27.4 | 0.00 | 0.00 | 0.00 | 62 | 1008.9 |
| 20260506120034 | 14 | 0 | 16.1 | 27.4 | 0.00 | 0.00 | 0.00 | 62 | 1008.9 |
| 20260506115833 | 14 | 51 | 14.5 | 27.4 | 0.00 | 0.00 | 0.00 | 62 | 1008.8 |
| 20260506115633 | 14 | 55 | 16.1 | 27.4 | 0.00 | 0.00 | 0.00 | 62 | 1008.8 |
| 20260506115434 | 14 | 59 | 20.9 | 27.4 | 0.00 | 0.00 | 0.00 | 62 | 1008.8 |
| 20260506115232 | 14 | 111 | 20.9 | 27.4 | 0.00 | 0.00 | 0.00 | 62 | 1008.8 |
| 20260506115033 | 13 | 0 | 12.9 | 27.4 | 0.00 | 0.00 | 0.00 | 62 | 1008.8 |
| 20260506114832 | 13 | 71 | 16.1 | 27.4 | 0.00 | 0.00 | 0.00 | 62 | 1008.8 |
| 20260506114632 | 13 | 0 | 19.3 | 29.0 | 0.00 | 0.00 | 0.00 | 62 | 1009.0 |
| 20260506114433 | 13 | 62 | 19.3 | 30.6 | 0.00 | 0.00 | 0.00 | 62 | 1008.8 |
| 20260506114232 | 13 | 65 | 19.3 | 32.2 | 0.00 | 0.00 | 0.00 | 62 | 1008.8 |
| 20260506114033 | 14 | 51 | 20.9 | 32.2 | 0.00 | 0.00 | 0.00 | 63 | 1008.7 |
| 20260506113832 | 14 | 0 | 25.7 | 32.2 | 0.00 | 0.00 | 0.00 | 62 | 1008.8 |
| 20260506113632 | 14 | 0 | 24.1 | 32.2 | 0.00 | 0.00 | 0.00 | 62 | 1008.7 |
| 20260506113432 | 14 | 86 | 25.7 | 32.2 | 0.00 | 0.00 | 0.00 | 62 | 1008.7 |
| 20260506113232 | 14 | 0 | 24.1 | 30.6 | 0.00 | 0.00 | 0.00 | 62 | 1008.8 |
| 20260506113032 | 15 | 49 | 25.7 | 30.6 | 0.00 | 0.00 | 0.00 | 62 | 1008.8 |
| 20260506112833 | 15 | 0 | 17.7 | 29.0 | 0.00 | 0.00 | 0.00 | 62 | 1008.8 |
| 20260506112633 | 15 | 0 | 17.7 | 29.0 | 0.00 | 0.00 | 0.00 | 62 | 1008.7 |
| 20260506112432 | 15 | 71 | 17.7 | 29.0 | 0.00 | 0.00 | 0.00 | 62 | 1008.8 |
| 20260506112232 | 15 | 76 | 9.7 | 29.0 | 0.00 | 0.00 | 0.00 | 62 | 1008.7 |
| 20260506112033 | 15 | 56 | 20.9 | 30.6 | 0.00 | 0.00 | 0.00 | 62 | 1008.8 |
| 20260506111832 | 15 | 31 | 14.5 | 30.6 | 0.00 | 0.00 | 0.00 | 62 | 1008.7 |
| 20260506111632 | 15 | 69 | 19.3 | 30.6 | 0.00 | 0.00 | 0.00 | 62 | 1008.7 |
| 20260506111432 | 15 | 52 | 19.3 | 30.6 | 0.00 | 0.00 | 0.00 | 62 | 1008.7 |
| 20260506111232 | 15 | 0 | 19.3 | 30.6 | 0.00 | 0.00 | 0.00 | 62 | 1008.7 |
| 20260506111032 | 15 | 0 | 19.3 | 30.6 | 0.00 | 0.00 | 0.00 | 62 | 1008.6 |
| 20260506110832 | 15 | 68 | 17.7 | 24.1 | 0.00 | 0.00 | 0.00 | 62 | 1008.7 |
| 20260506110632 | 15 | 72 | 12.9 | 25.7 | 0.00 | 0.00 | 0.00 | 62 | 1008.7 |
| 20260506110430 | 15 | 0 | 11.3 | 25.7 | 0.00 | 0.00 | 0.00 | 62 | 1008.6 |
| 20260506110233 | 15 | 66 | 6.4 | 25.7 | 0.00 | 0.00 | 0.00 | 62 | 1008.7 |
| 20260506110033 | 15 | 71 | 8.0 | 25.7 | 0.00 | 0.00 | 0.00 | 62 | 1008.7 |
| 20260506105831 | 15 | 69 | 16.1 | 25.7 | 0.00 | 0.00 | 0.00 | 62 | 1008.7 |
| 20260506105632 | 14 | 61 | 16.1 | 25.7 | 0.00 | 0.00 | 0.00 | 62 | 1008.7 |
| 20260506105435 | 14 | 69 | 17.7 | 25.7 | 0.00 | 0.00 | 0.00 | 61 | 1008.6 |
| 20260506105234 | 14 | 62 | 11.3 | 24.1 | 0.00 | 0.00 | 0.00 | 62 | 1008.7 |
| 20260506105034 | 14 | 62 | 14.5 | 24.1 | 0.00 | 0.00 | 0.00 | 61 | 1008.7 |
| 20260506104833 | 14 | 71 | 14.5 | 24.1 | 0.00 | 0.00 | 0.00 | 61 | 1008.7 |
| 20260506104606 | 14 | 61 | 14.5 | 24.1 | 0.00 | 0.00 | 0.00 | 61 | 1008.7 |
| 20260506104404 | 14 | 0 | 14.5 | 24.1 | 0.00 | 0.00 | 0.00 | 60 | 1008.7 |
| 20260506104204 | 14 | 78 | 16.1 | 24.1 | 0.00 | 0.00 | 0.00 | 60 | 1008.7 |
| 20260506104006 | 14 | 73 | 9.7 | 20.9 | 0.00 | 0.00 | 0.00 | 59 | 1008.8 |
| 20260506103802 | 14 | 56 | 12.9 | 20.9 | 0.00 | 0.00 | 0.00 | 60 | 1008.8 |
| 20260506103553 | 14 | 73 | 8.0 | 22.5 | 0.00 | 0.00 | 0.00 | 60 | 1008.7 |
| 20260506103141 | 13 | 0 | 8.0 | 22.5 | 0.00 | 0.00 | 0.00 | 61 | 1008.6 |
| 20260506102933 | 13 | 54 | 4.8 | 22.5 | 0.00 | 0.00 | 0.00 | 61 | 1008.7 |
| 20260506102732 | 13 | 79 | 8.0 | 22.5 | 0.00 | 0.00 | 0.00 | 61 | 1008.7 |
| 20260506102531 | 13 | 54 | 12.9 | 25.7 | 0.00 | 0.00 | 0.00 | 61 | 1008.7 |
| 20260506102331 | 13 | 73 | 11.3 | 25.7 | 0.00 | 0.00 | 0.00 | 61 | 1008.7 |
| 20260506102131 | 13 | 44 | 12.9 | 25.7 | 0.00 | 0.00 | 0.00 | 61 | 1008.7 |
| 20260506101932 | 13 | 56 | 8.0 | 25.7 | 0.00 | 0.00 | 0.00 | 61 | 1008.6 |
| 20260506101730 | 13 | 0 | 14.5 | 25.7 | 0.00 | 0.00 | 0.00 | 61 | 1008.7 |
| 20260506101531 | 13 | 78 | 9.7 | 22.5 | 0.00 | 0.00 | 0.00 | 61 | 1008.6 |
| 20260506101331 | 13 | 79 | 8.0 | 22.5 | 0.00 | 0.00 | 0.00 | 61 | 1008.5 |
| 20260506101131 | 13 | 0 | 9.7 | 22.5 | 0.00 | 0.00 | 0.00 | 60 | 1008.6 |
| 20260506100931 | 13 | 71 | 6.4 | 24.1 | 0.00 | 0.00 | 0.00 | 61 | 1008.6 |
| 20260506100731 | 13 | 0 | 11.3 | 24.1 | 0.00 | 0.00 | 0.00 | 61 | 1008.6 |
| 20260506100531 | 13 | 54 | 11.3 | 24.1 | 0.00 | 0.00 | 0.00 | 60 | 1008.5 |
| 20260506100331 | 13 | 68 | 12.9 | 24.1 | 0.00 | 0.00 | 0.00 | 60 | 1008.5 |
| 20260506100130 | 13 | 109 | 12.9 | 24.1 | 0.00 | 0.00 | 0.00 | 60 | 1008.5 |
| 20260506095931 | 13 | 54 | 12.9 | 20.9 | 0.00 | 0.00 | 0.00 | 60 | 1008.5 |
| 20260506095730 | 13 | 55 | 12.9 | 20.9 | 0.00 | 0.00 | 0.00 | 60 | 1008.5 |
| 20260506095532 | 13 | 55 | 9.7 | 20.9 | 0.00 | 0.00 | 0.00 | 59 | 1008.5 |
| 20260506095330 | 13 | 89 | 8.0 | 20.9 | 0.00 | 0.00 | 0.00 | 58 | 1008.5 |
| 20260506095130 | 13 | 68 | 9.7 | 20.9 | 0.00 | 0.00 | 0.00 | 57 | 1008.5 |
| 20260506094930 | 13 | 80 | 3.2 | 19.3 | 0.00 | 0.00 | 0.00 | 58 | 1008.5 |
| 20260506094731 | 13 | 61 | 8.0 | 19.3 | 0.00 | 0.00 | 0.00 | 57 | 1008.4 |
| 20260506094532 | 13 | 72 | 4.8 | 25.7 | 0.00 | 0.00 | 0.00 | 57 | 1008.5 |
| 20260506094330 | 13 | 0 | 12.9 | 25.7 | 0.00 | 0.00 | 0.00 | 58 | 1008.4 |
| 20260506094130 | 13 | 73 | 12.9 | 25.7 | 0.00 | 0.00 | 0.00 | 57 | 1008.4 |
| 20260506093931 | 13 | 79 | 11.3 | 25.7 | 0.00 | 0.00 | 0.00 | 57 | 1008.4 |
| 20260506093731 | 13 | 0 | 16.1 | 25.7 | 0.00 | 0.00 | 0.00 | 57 | 1008.4 |
| 20260506093531 | 13 | 0 | 16.1 | 24.1 | 0.00 | 0.00 | 0.00 | 56 | 1008.4 |
| 20260506093330 | 13 | 106 | 3.2 | 19.3 | 0.00 | 0.00 | 0.00 | 55 | 1008.4 |
| 20260506093130 | 13 | 58 | 1.6 | 19.3 | 0.00 | 0.00 | 0.00 | 55 | 1008.4 |
| 20260506092930 | 13 | 59 | 3.2 | 19.3 | 0.00 | 0.00 | 0.00 | 55 | 1008.4 |
| 20260506092730 | 13 | 61 | 4.8 | 20.9 | 0.00 | 0.00 | 0.00 | 53 | 1008.4 |
| 20260506092531 | 13 | 0 | 14.5 | 20.9 | 0.00 | 0.00 | 0.00 | 49 | 1008.4 |
| 20260506092330 | 13 | 58 | 8.0 | 20.9 | 0.00 | 0.00 | 0.00 | 50 | 1008.4 |
| 20260506092130 | 13 | 0 | 8.0 | 20.9 | 0.00 | 0.00 | 0.00 | 50 | 1008.5 |
| 20260506091907 | 13 | 0 | 9.7 | 20.9 | 0.00 | 0.00 | 0.00 | 48 | 1008.5 |
| 20260506091705 | 13 | 48 | 3.2 | 20.9 | 0.00 | 0.00 | 0.00 | 48 | 1008.4 |
| 20260506091506 | 13 | 104 | 11.3 | 20.9 | 0.00 | 0.00 | 0.00 | 44 | 1008.4 |
| 20260506091305 | 13 | 71 | 9.7 | 20.9 | 0.00 | 0.00 | 0.00 | 41 | 1008.4 |
| 20260506091106 | 13 | 0 | 4.8 | 24.1 | 0.00 | 0.00 | 0.00 | 38 | 1008.4 |
| 20260506090832 | 13 | 0 | 4.8 | 24.1 | 0.00 | 0.00 | 0.00 | 36 | 1008.4 |
| 20260506090631 | 13 | 0 | 9.7 | 24.1 | 0.00 | 0.00 | 0.00 | 36 | 1008.4 |
| 20260506090431 | 13 | 0 | 6.4 | 24.1 | 0.00 | 0.00 | 0.00 | 34 | 1008.4 |
| 20260506090231 | 13 | 0 | 8.0 | 25.7 | 0.00 | 0.00 | 0.00 | 36 | 1008.5 |
| 20260506090032 | 13 | 75 | 3.2 | 25.7 | 0.00 | 0.00 | 0.00 | 36 | 1008.4 |
| 20260506085829 | 13 | 0 | 6.4 | 25.7 | 0.00 | 0.00 | 0.00 | 36 | 1008.4 |
| 20260506085630 | 13 | 76 | 9.7 | 25.7 | 0.00 | 0.00 | 0.00 | 34 | 1008.3 |
| 20260506085430 | 13 | 71 | 14.5 | 25.7 | 0.00 | 0.00 | 0.00 | 34 | 1008.4 |
| 20260506085228 | 13 | 83 | 9.7 | 19.3 | 0.00 | 0.00 | 0.00 | 36 | 1008.4 |
| 20260506085029 | 13 | 65 | 6.4 | 17.7 | 0.00 | 0.00 | 0.00 | 35 | 1008.4 |
| 20260506084828 | 13 | 71 | 8.0 | 17.7 | 0.00 | 0.00 | 0.00 | 30 | 1008.4 |
| 20260506084630 | 13 | 62 | 4.8 | 20.9 | 0.00 | 0.00 | 0.00 | 29 | 1008.4 |
| 20260506084429 | 12 | 0 | 4.8 | 22.5 | 0.00 | 0.00 | 0.00 | 32 | 1008.4 |
| 20260506084228 | 12 | 66 | 8.0 | 22.5 | 0.00 | 0.00 | 0.00 | 30 | 1008.4 |
| 20260506084029 | 12 | 51 | 6.4 | 24.1 | 0.00 | 0.00 | 0.00 | 30 | 1008.4 |
| 20260506083829 | 12 | 127 | 11.3 | 24.1 | 0.00 | 0.00 | 0.00 | 29 | 1008.4 |
| 20260506083629 | 12 | 0 | 9.7 | 24.1 | 0.00 | 0.00 | 0.00 | 29 | 1008.4 |
| 20260506083428 | 12 | 0 | 11.3 | 24.1 | 0.00 | 0.00 | 0.00 | 26 | 1008.3 |
| 20260506083229 | 12 | 65 | 11.3 | 24.1 | 0.00 | 0.00 | 0.00 | 26 | 1008.4 |
| 20260506083029 | 12 | 0 | 3.2 | 22.5 | 0.00 | 0.00 | 0.00 | 24 | 1008.4 |
| 20260506082828 | 12 | 62 | 8.0 | 25.7 | 0.00 | 0.00 | 0.00 | 24 | 1008.4 |
| 20260506082628 | 12 | 62 | 11.3 | 25.7 | 0.00 | 0.00 | 0.00 | 25 | 1008.3 |
| 20260506082429 | 12 | 93 | 14.5 | 25.7 | 0.00 | 0.00 | 0.00 | 24 | 1008.3 |
| 20260506082228 | 12 | 0 | 14.5 | 25.7 | 0.00 | 0.00 | 0.00 | 23 | 1008.3 |
| 20260506082028 | 12 | 75 | 19.3 | 25.7 | 0.00 | 0.00 | 0.00 | 20 | 1008.3 |
| 20260506081828 | 12 | 61 | 3.2 | 22.5 | 0.00 | 0.00 | 0.00 | 17 | 1008.2 |
| 20260506081628 | 12 | 59 | 4.8 | 22.5 | 0.00 | 0.00 | 0.00 | 15 | 1008.3 |
| 20260506081429 | 12 | 45 | 9.7 | 22.5 | 0.00 | 0.00 | 0.00 | 11 | 1008.3 |
| 20260506081228 | 12 | 76 | 9.7 | 22.5 | 0.00 | 0.00 | 0.00 | 8 | 1008.3 |
| 20260506081028 | 12 | 54 | 11.3 | 22.5 | 0.00 | 0.00 | 0.00 | 6 | 1008.4 |
| 20260506080820 | 12 | 0 | 3.2 | 22.5 | 0.00 | 0.00 | 0.00 | 3 | 1008.3 |
| 20260506080615 | 12 | 65 | 6.4 | 22.5 | 0.00 | 0.00 | 0.00 | 6 | 1008.3 |
| 20260506080408 | 12 | 73 | 0.0 | 22.5 | 0.00 | 0.00 | 0.00 | 5 | 1008.3 |
| 20260506080206 | 12 | 65 | 9.7 | 22.5 | 0.00 | 0.00 | 0.00 | 5 | 1008.3 |
| 20260506073405 | 11 | 0 | 4.8 | 20.9 | 0.00 | 0.00 | 0.00 | 1 | 1008.2 |
| 20260506073205 | 11 | 0 | 0.0 | 20.9 | 0.00 | 0.00 | 0.00 | 1 | 1008.2 |
| 20260506073007 | 11 | 48 | 8.0 | 20.9 | 0.00 | 0.00 | 0.00 | 1 | 1008.2 |
| 20260506072805 | 11 | 78 | 12.9 | 20.9 | 0.00 | 0.00 | 0.00 | 1 | 1008.3 |
| 20260506072605 | 11 | 58 | 6.4 | 20.9 | 0.00 | 0.00 | 0.00 | 1 | 1008.2 |
| 20260506072406 | 11 | 0 | 3.2 | 19.3 | 0.00 | 0.00 | 0.00 | 1 | 1008.2 |
| 20260506072205 | 11 | 59 | 3.2 | 19.3 | 0.00 | 0.00 | 0.00 | 1 | 1008.2 |
| 20260506072005 | 11 | 61 | 3.2 | 19.3 | 0.00 | 0.00 | 0.00 | 1 | 1008.2 |
| 20260506071803 | 11 | 0 | 6.4 | 19.3 | 0.00 | 0.00 | 0.00 | 1 | 1008.2 |
| 20260506071604 | 11 | 0 | 4.8 | 19.3 | 0.00 | 0.00 | 0.00 | 1 | 1008.2 |
| 20260506071403 | 11 | 111 | 3.2 | 19.3 | 0.00 | 0.00 | 0.00 | 1 | 1008.2 |
| 20260506071205 | 11 | 75 | 3.2 | 19.3 | 0.00 | 0.00 | 0.00 | 1 | 1008.2 |
| 20260506071004 | 11 | 71 | 6.4 | 20.9 | 0.00 | 0.00 | 0.00 | 1 | 1008.2 |
| 20260506070804 | 11 | 0 | 8.0 | 20.9 | 0.00 | 0.00 | 0.00 | 1 | 1008.1 |
| 20260506070605 | 11 | 55 | 11.3 | 20.9 | 0.00 | 0.00 | 0.00 | 1 | 1008.3 |
| 20260506070404 | 11 | 0 | 8.0 | 20.9 | 0.00 | 0.00 | 0.00 | 1 | 1008.3 |
| 20260506070205 | 11 | 51 | 11.3 | 20.9 | 0.00 | 0.00 | 0.00 | 1 | 1008.2 |
| 20260506062403 | 11 | 0 | 1.6 | 14.5 | 0.00 | 0.00 | 0.00 | 1 | 1008.0 |
| 20260506062203 | 11 | 0 | 6.4 | 14.5 | 0.00 | 0.00 | 0.00 | 1 | 1007.9 |
| 20260506062004 | 11 | 56 | 6.4 | 14.5 | 0.00 | 0.00 | 0.00 | 1 | 1008.0 |
| 20260506061803 | 11 | 61 | 3.2 | 14.5 | 0.00 | 0.00 | 0.00 | 1 | 1008.0 |
| 20260506061604 | 11 | 0 | 3.2 | 14.5 | 0.00 | 0.00 | 0.00 | 1 | 1007.9 |
| 20260506061404 | 11 | 127 | 3.2 | 14.5 | 0.00 | 0.00 | 0.00 | 1 | 1007.9 |
| 20260506061203 | 11 | 76 | 4.8 | 14.5 | 0.00 | 0.00 | 0.00 | 1 | 1007.9 |
| 20260506061006 | 11 | 78 | 1.6 | 11.3 | 0.00 | 0.00 | 0.00 | 1 | 1007.9 |
| 20260506060805 | 11 | 76 | 3.2 | 11.3 | 0.00 | 0.00 | 0.00 | 1 | 1007.9 |
| 20260506060604 | 11 | 0 | 3.2 | 11.3 | 0.00 | 0.00 | 0.00 | 1 | 1007.9 |
| 20260506060402 | 11 | 44 | 4.8 | 11.3 | 0.00 | 0.00 | 0.00 | 1 | 1007.9 |
| 20260506060203 | 11 | 55 | 1.6 | 11.3 | 0.00 | 0.00 | 0.00 | 1 | 1007.9 |
| 20260506051341 | 10 | 0 | 0.0 | 4.8 | 0.00 | 0.00 | 0.00 | 1 | 1007.8 |
| 20260506051132 | 10 | 0 | 0.0 | 4.8 | 0.00 | 0.00 | 0.00 | 1 | 1007.9 |
| 20260506050932 | 10 | 68 | 0.0 | 4.8 | 0.00 | 0.00 | 0.00 | 1 | 1007.8 |
| 20260506050730 | 10 | 110 | 0.0 | 4.8 | 0.00 | 0.00 | 0.00 | 1 | 1007.8 |
| 20260506050532 | 10 | 0 | 1.6 | 4.8 | 0.00 | 0.00 | 0.00 | 1 | 1007.9 |
| 20260506050332 | 10 | 71 | 1.6 | 4.8 | 0.00 | 0.00 | 0.00 | 1 | 1007.9 |
| 20260506050131 | 10 | 0 | 0.0 | 6.4 | 0.00 | 0.00 | 0.00 | 1 | 1007.8 |
| 20260506045125 | 10 | 0 | 0.0 | 4.8 | 0.00 | 0.00 | 0.00 | 1 | 1008.0 |
| 20260506044925 | 10 | 0 | 1.6 | 4.8 | 0.00 | 0.00 | 0.00 | 1 | 1008.1 |
| 20260506044725 | 10 | 35 | 0.0 | 6.4 | 0.00 | 0.00 | 0.00 | 1 | 1008.0 |
| 20260506044526 | 10 | 62 | 0.0 | 6.4 | 0.00 | 0.00 | 0.00 | 1 | 1008.0 |
| 20260506044326 | 10 | 68 | 1.6 | 6.4 | 0.00 | 0.00 | 0.00 | 1 | 1007.9 |
| 20260506044125 | 10 | 83 | 0.0 | 8.0 | 0.00 | 0.00 | 0.00 | 1 | 1007.9 |
| 20260506043925 | 10 | 63 | 3.2 | 8.0 | 0.00 | 0.00 | 0.00 | 1 | 1007.8 |
| 20260506043724 | 10 | 78 | 1.6 | 9.7 | 0.00 | 0.00 | 0.00 | 1 | 1007.8 |
| 20260506043527 | 10 | 0 | 0.0 | 9.7 | 0.00 | 0.00 | 0.00 | 1 | 1007.8 |
| 20260506043324 | 10 | 45 | 3.2 | 9.7 | 0.00 | 0.00 | 0.00 | 1 | 1007.8 |
| 20260506043124 | 10 | 42 | 1.6 | 9.7 | 0.00 | 0.00 | 0.00 | 1 | 1007.8 |
| 20260506042924 | 10 | 71 | 3.2 | 9.7 | 0.00 | 0.00 | 0.00 | 1 | 1007.7 |
| 20260506042725 | 10 | 73 | 3.2 | 8.0 | 0.00 | 0.00 | 0.00 | 1 | 1007.7 |
| 20260506042527 | 10 | 58 | 3.2 | 8.0 | 0.00 | 0.00 | 0.00 | 1 | 1007.7 |
| 20260506042326 | 10 | 0 | 1.6 | 8.0 | 0.00 | 0.00 | 0.00 | 1 | 1007.8 |
| 20260506042126 | 10 | 65 | 0.0 | 8.0 | 0.00 | 0.00 | 0.00 | 1 | 1007.7 |
| 20260506041924 | 10 | 63 | 0.0 | 8.0 | 0.00 | 0.00 | 0.00 | 1 | 1007.7 |
| 20260506041726 | 10 | 68 | 1.6 | 8.0 | 0.00 | 0.00 | 0.00 | 1 | 1007.7 |
| 20260506041525 | 10 | 76 | 0.0 | 6.4 | 0.00 | 0.00 | 0.00 | 1 | 1007.7 |
| 20260506041324 | 10 | 61 | 0.0 | 6.4 | 0.00 | 0.00 | 0.00 | 1 | 1007.7 |
| 20260506041125 | 10 | 0 | 3.2 | 6.4 | 0.00 | 0.00 | 0.00 | 1 | 1007.8 |
| 20260506040924 | 10 | 66 | 0.0 | 3.2 | 0.00 | 0.00 | 0.00 | 1 | 1007.8 |
| 20260506040724 | 10 | 0 | 0.0 | 3.2 | 0.00 | 0.00 | 0.00 | 1 | 1007.9 |
| 20260506040526 | 10 | 0 | 0.0 | 3.2 | 0.00 | 0.00 | 0.00 | 1 | 1007.8 |
| 20260506040324 | 10 | 52 | 1.6 | 4.8 | 0.00 | 0.00 | 0.00 | 1 | 1007.9 |
| 20260506040124 | 10 | 65 | 0.0 | 4.8 | 0.00 | 0.00 | 0.00 | 1 | 1007.9 |
| 20260506035923 | 10 | 66 | 0.0 | 4.8 | 0.00 | 0.00 | 0.00 | 1 | 1007.8 |
| 20260506035724 | 10 | 75 | 0.0 | 8.0 | 0.00 | 0.00 | 0.00 | 1 | 1007.8 |
| 20260506035525 | 10 | 76 | 0.0 | 11.3 | 0.00 | 0.00 | 0.00 | 1 | 1007.8 |
| 20260506035325 | 10 | 0 | 0.0 | 11.3 | 0.00 | 0.00 | 0.00 | 1 | 1007.8 |
| 20260506035124 | 10 | 0 | 1.6 | 11.3 | 0.00 | 0.00 | 0.00 | 1 | 1007.8 |
| 20260506034923 | 10 | 69 | 1.6 | 11.3 | 0.00 | 0.00 | 0.00 | 1 | 1007.8 |
| 20260506034723 | 10 | 66 | 3.2 | 11.3 | 0.00 | 0.00 | 0.00 | 1 | 1007.8 |
| 20260506034525 | 10 | 0 | 1.6 | 6.4 | 0.00 | 0.00 | 0.00 | 1 | 1007.8 |
| 20260506034324 | 10 | 63 | 0.0 | 6.4 | 0.00 | 0.00 | 0.00 | 1 | 1007.8 |
| 20260506034124 | 10 | 76 | 1.6 | 6.4 | 0.00 | 0.00 | 0.00 | 1 | 1007.8 |
| 20260506033924 | 10 | 55 | 1.6 | 6.4 | 0.00 | 0.00 | 0.00 | 1 | 1007.8 |
| 20260506033724 | 10 | 72 | 3.2 | 6.4 | 0.00 | 0.00 | 0.00 | 1 | 1007.9 |
| 20260506033526 | 10 | 0 | 1.6 | 3.2 | 0.00 | 0.00 | 0.00 | 1 | 1007.9 |
| 20260506033324 | 10 | 72 | 0.0 | 1.6 | 0.00 | 0.00 | 0.00 | 1 | 1007.9 |
| 20260506033123 | 10 | 0 | 0.0 | 1.6 | 0.00 | 0.00 | 0.00 | 1 | 1007.9 |
| 20260506032924 | 10 | 66 | 0.0 | 1.6 | 0.00 | 0.00 | 0.00 | 1 | 1007.9 |
| 20260506032724 | 10 | 82 | 0.0 | 3.2 | 0.00 | 0.00 | 0.00 | 1 | 1008.0 |
| 20260506032524 | 10 | 61 | 0.0 | 4.8 | 0.00 | 0.00 | 0.00 | 1 | 1008.0 |
| 20260506032323 | 10 | 99 | 0.0 | 6.4 | 0.00 | 0.00 | 0.00 | 1 | 1008.0 |
| 20260506032123 | 10 | 72 | 0.0 | 6.4 | 0.00 | 0.00 | 0.00 | 1 | 1008.0 |
| 20260506031923 | 10 | 65 | 0.0 | 6.4 | 0.00 | 0.00 | 0.00 | 1 | 1008.0 |
| 20260506031724 | 10 | 72 | 0.0 | 6.4 | 0.00 | 0.00 | 0.00 | 1 | 1008.0 |
| 20260506031524 | 10 | 0 | 0.0 | 6.4 | 0.00 | 0.00 | 0.00 | 1 | 1008.1 |
| 20260506031322 | 10 | 0 | 0.0 | 4.8 | 0.00 | 0.00 | 0.00 | 1 | 1008.1 |
| 20260506031122 | 10 | 0 | 1.6 | 4.8 | 0.00 | 0.00 | 0.00 | 1 | 1008.1 |
| 20260506030923 | 10 | 0 | 1.6 | 4.8 | 0.00 | 0.00 | 0.00 | 1 | 1008.1 |
| 20260506030724 | 10 | 0 | 0.0 | 4.8 | 0.00 | 0.00 | 0.00 | 1 | 1008.1 |
| 20260506030524 | 10 | 65 | 0.0 | 4.8 | 0.00 | 0.00 | 0.00 | 1 | 1008.2 |
| 20260506030323 | 10 | 66 | 0.0 | 6.4 | 0.00 | 0.00 | 0.00 | 1 | 1008.2 |
| 20260506030122 | 10 | 0 | 0.0 | 6.4 | 0.00 | 0.00 | 0.00 | 1 | 1008.2 |
| 20260506025924 | 10 | 63 | 0.0 | 6.4 | 0.00 | 0.00 | 0.00 | 1 | 1008.3 |
| 20260506025724 | 10 | 0 | 0.0 | 6.4 | 0.00 | 0.00 | 0.00 | 1 | 1008.2 |
| 20260506025525 | 10 | 0 | 0.0 | 6.4 | 0.00 | 0.00 | 0.00 | 1 | 1008.2 |
| 20260506025325 | 10 | 78 | 0.0 | 3.2 | 0.00 | 0.00 | 0.00 | 1 | 1008.3 |
| 20260506025125 | 10 | 61 | 0.0 | 4.8 | 0.00 | 0.00 | 0.00 | 1 | 1008.3 |
| 20260506024924 | 10 | 0 | 0.0 | 4.8 | 0.00 | 0.00 | 0.00 | 1 | 1008.4 |
| 20260506024724 | 10 | 0 | 0.0 | 4.8 | 0.00 | 0.00 | 0.00 | 1 | 1008.4 |
| 20260506024525 | 10 | 48 | 0.0 | 6.4 | 0.00 | 0.00 | 0.00 | 1 | 1008.3 |
| 20260506024323 | 10 | 0 | 1.6 | 6.4 | 0.00 | 0.00 | 0.00 | 1 | 1008.4 |
| 20260506024124 | 10 | 55 | 0.0 | 6.4 | 0.00 | 0.00 | 0.00 | 1 | 1008.4 |
| 20260506023924 | 10 | 0 | 0.0 | 6.4 | 0.00 | 0.00 | 0.00 | 1 | 1008.5 |
| 20260506023724 | 10 | 0 | 0.0 | 6.4 | 0.00 | 0.00 | 0.00 | 1 | 1008.5 |
| 20260506023525 | 10 | 69 | 0.0 | 3.2 | 0.00 | 0.00 | 0.00 | 1 | 1008.5 |
| 20260506023324 | 10 | 45 | 0.0 | 3.2 | 0.00 | 0.00 | 0.00 | 1 | 1008.5 |
| 20260506023123 | 10 | 0 | 0.0 | 3.2 | 0.00 | 0.00 | 0.00 | 1 | 1008.5 |
| 20260506022937 | 10 | 72 | 0.0 | 1.6 | 0.00 | 0.00 | 0.00 | 1 | 1008.5 |
| 20260506022723 | 10 | 73 | 0.0 | 1.6 | 0.00 | 0.00 | 0.00 | 1 | 1008.5 |
| 20260506022525 | 10 | 0 | 0.0 | 1.6 | 0.00 | 0.00 | 0.00 | 1 | 1008.5 |
| 20260506022323 | 10 | 82 | 0.0 | 1.6 | 0.00 | 0.00 | 0.00 | 1 | 1008.5 |
| 20260506022124 | 10 | 59 | 0.0 | 1.6 | 0.00 | 0.00 | 0.00 | 1 | 1008.4 |
| 20260506021923 | 10 | 59 | 0.0 | 1.6 | 0.00 | 0.00 | 0.00 | 1 | 1008.4 |
| 20260506021723 | 10 | 63 | 0.0 | 1.6 | 0.00 | 0.00 | 0.00 | 1 | 1008.4 |
| 20260506021526 | 10 | 82 | 0.0 | 6.4 | 0.00 | 0.00 | 0.00 | 1 | 1008.4 |
| 20260506021323 | 10 | 66 | 0.0 | 6.4 | 0.00 | 0.00 | 0.00 | 1 | 1008.4 |
| 20260506021124 | 10 | 76 | 0.0 | 6.4 | 0.00 | 0.00 | 0.00 | 1 | 1008.4 |
| 20260506020924 | 10 | 61 | 0.0 | 8.0 | 0.00 | 0.00 | 0.00 | 1 | 1008.4 |
| 20260506020723 | 10 | 71 | 0.0 | 8.0 | 0.00 | 0.00 | 0.00 | 1 | 1008.4 |
| 20260506020526 | 10 | 51 | 0.0 | 8.0 | 0.00 | 0.00 | 0.00 | 1 | 1008.4 |
| 20260506020324 | 10 | 54 | 0.0 | 8.0 | 0.00 | 0.00 | 0.00 | 1 | 1008.5 |
| 20260506020124 | 10 | 65 | 0.0 | 8.0 | 0.00 | 0.00 | 0.00 | 1 | 1008.4 |
| 20260506015922 | 10 | 55 | 0.0 | 3.2 | 0.00 | 0.00 | 0.00 | 1 | 1008.6 |
| 20260506015723 | 10 | 68 | 0.0 | 3.2 | 0.00 | 0.00 | 0.00 | 1 | 1008.6 |
| 20260506015529 | 10 | 102 | 0.0 | 3.2 | 0.00 | 0.00 | 0.00 | 1 | 1008.6 |
| 20260506015322 | 10 | 73 | 0.0 | 3.2 | 0.00 | 0.00 | 0.00 | 1 | 1008.6 |
| 20260506015117 | 10 | 66 | 0.0 | 3.2 | 0.00 | 0.00 | 0.00 | 1 | 1008.6 |
| 20260506014910 | 10 | 52 | 0.0 | 6.4 | 0.00 | 0.00 | 0.00 | 1 | 1008.6 |
| 20260506014706 | 10 | 62 | 0.0 | 6.4 | 0.00 | 0.00 | 0.00 | 1 | 1008.6 |
| 20260506014507 | 10 | 54 | 0.0 | 6.4 | 0.00 | 0.00 | 0.00 | 1 | 1008.6 |
| 20260506014306 | 10 | 0 | 1.6 | 6.4 | 0.00 | 0.00 | 0.00 | 1 | 1008.7 |
| 20260506014105 | 10 | 51 | 3.2 | 8.0 | 0.00 | 0.00 | 0.00 | 1 | 1008.7 |
| 20260506013906 | 10 | 44 | 0.0 | 8.0 | 0.00 | 0.00 | 0.00 | 1 | 1008.7 |
| 20260506013706 | 10 | 55 | 1.6 | 11.3 | 0.00 | 0.00 | 0.00 | 1 | 1008.7 |
| 20260506013507 | 10 | 0 | 1.6 | 11.3 | 0.00 | 0.00 | 0.00 | 1 | 1008.7 |
| 20260506013305 | 10 | 66 | 1.6 | 11.3 | 0.00 | 0.00 | 0.00 | 1 | 1008.7 |
| 20260506013106 | 10 | 59 | 3.2 | 11.3 | 0.00 | 0.00 | 0.00 | 1 | 1008.7 |
| 20260506012905 | 10 | 68 | 3.2 | 11.3 | 0.00 | 0.00 | 0.00 | 1 | 1008.6 |
| 20260506012706 | 10 | 0 | 1.6 | 6.4 | 0.00 | 0.00 | 0.00 | 1 | 1008.7 |
| 20260506012507 | 10 | 59 | 0.0 | 4.8 | 0.00 | 0.00 | 0.00 | 1 | 1008.7 |
| 20260506012308 | 10 | 62 | 0.0 | 6.4 | 0.00 | 0.00 | 0.00 | 1 | 1008.8 |
| 20260506012105 | 10 | 69 | 0.0 | 6.4 | 0.00 | 0.00 | 0.00 | 1 | 1008.7 |
| 20260506011905 | 10 | 0 | 0.0 | 6.4 | 0.00 | 0.00 | 0.00 | 1 | 1008.7 |
| 20260506011705 | 10 | 61 | 0.0 | 6.4 | 0.00 | 0.00 | 0.00 | 1 | 1008.8 |
| 20260506011505 | 10 | 75 | 1.6 | 6.4 | 0.00 | 0.00 | 0.00 | 1 | 1008.8 |
| 20260506011305 | 10 | 54 | 1.6 | 6.4 | 0.00 | 0.00 | 0.00 | 1 | 1008.7 |
| 20260506011105 | 10 | 0 | 0.0 | 9.7 | 0.00 | 0.00 | 0.00 | 1 | 1008.7 |
| 20260506010903 | 10 | 61 | 1.6 | 16.1 | 0.00 | 0.00 | 0.00 | 1 | 1008.7 |
| 20260506010704 | 10 | 0 | 0.0 | 16.1 | 0.00 | 0.00 | 0.00 | 1 | 1008.7 |
| 20260506010503 | 10 | 0 | 0.0 | 16.1 | 0.00 | 0.00 | 0.00 | 1 | 1008.7 |
| 20260506010304 | 10 | 0 | 3.2 | 16.1 | 0.00 | 0.00 | 0.00 | 1 | 1008.8 |
| 20260506010104 | 10 | 79 | 3.2 | 16.1 | 0.00 | 0.00 | 0.00 | 1 | 1008.8 |
| 20260506005904 | 10 | 0 | 1.6 | 6.4 | 0.00 | 0.00 | 0.00 | 1 | 1008.9 |
| 20260506005702 | 10 | 56 | 0.0 | 8.0 | 0.00 | 0.00 | 0.00 | 1 | 1008.8 |
| 20260506005504 | 10 | 0 | 1.6 | 8.0 | 0.00 | 0.00 | 0.00 | 1 | 1008.8 |
| 20260506005305 | 10 | 0 | 0.0 | 8.0 | 0.00 | 0.00 | 0.00 | 1 | 1008.8 |
| 20260506005103 | 10 | 0 | 0.0 | 8.0 | 0.00 | 0.00 | 0.00 | 1 | 1008.9 |
| 20260506004906 | 10 | 65 | 1.6 | 8.0 | 0.00 | 0.00 | 0.00 | 1 | 1008.9 |
| 20260506004705 | 10 | 76 | 0.0 | 6.4 | 0.00 | 0.00 | 0.00 | 1 | 1008.9 |
| 20260506004505 | 10 | 76 | 1.6 | 6.4 | 0.00 | 0.00 | 0.00 | 1 | 1008.9 |
| 20260506004302 | 10 | 0 | 1.6 | 4.8 | 0.00 | 0.00 | 0.00 | 1 | 1008.9 |
| 20260506004105 | 10 | 61 | 0.0 | 1.6 | 0.00 | 0.00 | 0.00 | 1 | 1008.9 |
| 20260506003905 | 10 | 54 | 0.0 | 1.6 | 0.00 | 0.00 | 0.00 | 1 | 1009.0 |
| 20260506003705 | 10 | 59 | 0.0 | 1.6 | 0.00 | 0.00 | 0.00 | 1 | 1009.0 |
| 20260506003502 | 10 | 0 | 0.0 | 1.6 | 0.00 | 0.00 | 0.00 | 1 | 1009.0 |
| 20260506003305 | 10 | 0 | 0.0 | 1.6 | 0.00 | 0.00 | 0.00 | 1 | 1009.0 |
| 20260506003102 | 10 | 66 | 0.0 | 0.0 | 0.00 | 0.00 | 0.00 | 1 | 1009.1 |
| 20260506002834 | 10 | 0 | 0.0 | 1.6 | 0.00 | 0.00 | 0.00 | 1 | 1009.0 |
| 20260506002634 | 10 | 0 | 0.0 | 1.6 | 0.00 | 0.00 | 0.00 | 1 | 1009.0 |
| 20260506002431 | 10 | 0 | 0.0 | 1.6 | 0.00 | 0.00 | 0.00 | 1 | 1009.0 |
| 20260506002231 | 10 | 0 | 0.0 | 1.6 | 0.00 | 0.00 | 0.00 | 1 | 1009.0 |
| 20260506002031 | 10 | 0 | 0.0 | 1.6 | 0.00 | 0.00 | 0.00 | 1 | 1009.0 |
| 20260506001831 | 10 | 71 | 0.0 | 1.6 | 0.00 | 0.00 | 0.00 | 1 | 1009.0 |
| 20260506001631 | 10 | 76 | 0.0 | 1.6 | 0.00 | 0.00 | 0.00 | 1 | 1009.1 |
| 20260506001431 | 10 | 71 | 0.0 | 1.6 | 0.00 | 0.00 | 0.00 | 1 | 1009.0 |
| 20260506001231 | 10 | 72 | 0.0 | 1.6 | 0.00 | 0.00 | 0.00 | 1 | 1009.1 |
| 20260506001031 | 10 | 68 | 0.0 | 1.6 | 0.00 | 0.00 | 0.00 | 1 | 1009.1 |
| 20260506000831 | 10 | 71 | 0.0 | 0.0 | 0.00 | 0.00 | 0.00 | 1 | 1009.1 |
| 20260506000631 | 10 | 73 | 0.0 | 0.0 | 0.00 | 0.00 | 0.00 | 1 | 1009.1 |
| 20260506000431 | 10 | 0 | 0.0 | 0.0 | 0.00 | 0.00 | 0.00 | 1 | 1009.1 |
| 20260506000232 | 10 | 69 | 0.0 | 0.0 | 0.00 | 0.00 | 0.00 | 1 | 1009.2 |
| 20260506000032 | 10 | 69 | 0.0 | 0.0 | 0.00 | 0.00 | 0.00 | 1 | 1009.2 |
| 20260505235831 | 10 | 79 | 0.0 | 0.0 | 0.00 | 0.00 | 0.00 | 1 | 1009.3 |
| 20260505235632 | 10 | 72 | 0.0 | 1.6 | 0.00 | 0.00 | 0.00 | 1 | 1009.3 |
| 20260505235431 | 10 | 66 | 0.0 | 1.6 | 0.00 | 0.00 | 0.00 | 1 | 1009.3 |
| 20260505235232 | 10 | 63 | 0.0 | 1.6 | 0.00 | 0.00 | 0.00 | 1 | 1009.4 |
| 20260505235031 | 10 | 55 | 0.0 | 1.6 | 0.00 | 0.00 | 0.00 | 1 | 1009.4 |
| 20260505234832 | 10 | 47 | 0.0 | 1.6 | 0.00 | 0.00 | 0.00 | 1 | 1009.4 |
| 20260505234631 | 10 | 75 | 0.0 | 6.4 | 0.00 | 0.00 | 0.00 | 1 | 1009.4 |
| 20260505234432 | 10 | 69 | 0.0 | 6.4 | 0.00 | 0.00 | 0.00 | 1 | 1009.3 |
| 20260505234231 | 10 | 61 | 0.0 | 6.4 | 0.00 | 0.00 | 0.00 | 1 | 1009.4 |
| 20260505234031 | 10 | 0 | 1.6 | 6.4 | 0.00 | 0.00 | 0.00 | 1 | 1009.4 |
| 20260505233833 | 10 | 75 | 1.6 | 6.4 | 0.00 | 0.00 | 0.00 | 1 | 1009.5 |
| 20260505233635 | 10 | 54 | 0.0 | 1.6 | 0.00 | 0.00 | 0.00 | 1 | 1009.5 |
| 20260505233425 | 10 | 54 | 0.0 | 1.6 | 0.00 | 0.00 | 0.00 | 1 | 1009.4 |
| 20260505233219 | 10 | 0 | 0.0 | 0.0 | 0.00 | 0.00 | 0.00 | 1 | 1009.5 |
| 20260505233019 | 10 | 73 | 0.0 | 1.6 | 0.00 | 0.00 | 0.00 | 1 | 1009.4 |
| 20260505232819 | 10 | 69 | 0.0 | 1.6 | 0.00 | 0.00 | 0.00 | 1 | 1009.5 |
| 20260505232620 | 10 | 66 | 0.0 | 1.6 | 0.00 | 0.00 | 0.00 | 1 | 1009.5 |
| 20260505232419 | 10 | 49 | 0.0 | 1.6 | 0.00 | 0.00 | 0.00 | 1 | 1009.5 |
| 20260505232219 | 10 | 58 | 0.0 | 1.6 | 0.00 | 0.00 | 0.00 | 1 | 1009.5 |
| 20260505232019 | 10 | 56 | 0.0 | 0.0 | 0.00 | 0.00 | 0.00 | 1 | 1009.5 |
| 20260505231819 | 10 | 92 | 0.0 | 0.0 | 0.00 | 0.00 | 0.00 | 1 | 1009.5 |
| 20260505231619 | 10 | 72 | 0.0 | 0.0 | 0.00 | 0.00 | 0.00 | 1 | 1009.5 |
| 20260505231418 | 10 | 0 | 0.0 | 0.0 | 0.00 | 0.00 | 0.00 | 1 | 1009.5 |
| 20260505231219 | 10 | 62 | 0.0 | 0.0 | 0.00 | 0.00 | 0.00 | 1 | 1009.5 |
| 20260505231019 | 10 | 75 | 0.0 | 0.0 | 0.00 | 0.00 | 0.00 | 1 | 1009.6 |
| 20260505230819 | 10 | 0 | 0.0 | 1.6 | 0.00 | 0.00 | 0.00 | 1 | 1009.6 |
| 20260505230620 | 10 | 0 | 0.0 | 1.6 | 0.00 | 0.00 | 0.00 | 1 | 1009.6 |
| 20260505230419 | 10 | 0 | 0.0 | 1.6 | 0.00 | 0.00 | 0.00 | 1 | 1009.6 |
| 20260505230217 | 10 | 55 | 0.0 | 1.6 | 0.00 | 0.00 | 0.00 | 1 | 1009.6 |
| 20260505230018 | 10 | 47 | 0.0 | 1.6 | 0.00 | 0.00 | 0.00 | 1 | 1009.6 |
| 20260505225818 | 10 | 55 | 0.0 | 1.6 | 0.00 | 0.00 | 0.00 | 1 | 1009.6 |
| 20260505225617 | 10 | 0 | 0.0 | 1.6 | 0.00 | 0.00 | 0.00 | 1 | 1009.6 |
| 20260505225418 | 10 | 69 | 0.0 | 1.6 | 0.00 | 0.00 | 0.00 | 1 | 1009.6 |
| 20260505225217 | 10 | 55 | 0.0 | 1.6 | 0.00 | 0.00 | 0.00 | 1 | 1009.6 |
| 20260505225017 | 10 | 75 | 0.0 | 1.6 | 0.00 | 0.00 | 0.00 | 1 | 1009.6 |
| 20260505224817 | 10 | 63 | 0.0 | 0.0 | 0.00 | 0.00 | 0.00 | 1 | 1009.7 |
| 20260505224610 | 10 | 61 | 0.0 | 0.0 | 0.00 | 0.00 | 0.00 | 1 | 1009.7 |
| 20260505224409 | 10 | 104 | 0.0 | 0.0 | 0.00 | 0.00 | 0.00 | 1 | 1009.7 |
| 20260505224205 | 10 | 85 | 0.0 | 0.0 | 0.00 | 0.00 | 0.00 | 1 | 1009.7 |
| 20260505224005 | 10 | 0 | 0.0 | 0.0 | 0.00 | 0.00 | 0.00 | 1 | 1009.6 |
| 20260505223804 | 10 | 65 | 0.0 | 0.0 | 0.00 | 0.00 | 0.00 | 1 | 1009.7 |
| 20260505223604 | 10 | 65 | 0.0 | 0.0 | 0.00 | 0.00 | 0.00 | 1 | 1009.7 |
| 20260505223404 | 10 | 0 | 0.0 | 0.0 | 0.00 | 0.00 | 0.00 | 1 | 1009.7 |
| 20260505223204 | 10 | 72 | 0.0 | 0.0 | 0.00 | 0.00 | 0.00 | 1 | 1009.7 |
| 20260505223005 | 10 | 0 | 0.0 | 0.0 | 0.00 | 0.00 | 0.00 | 1 | 1009.8 |
| 20260505222804 | 9 | 69 | 0.0 | 0.0 | 0.00 | 0.00 | 0.00 | 1 | 1009.7 |
| 20260505222604 | 9 | 79 | 0.0 | 0.0 | 0.00 | 0.00 | 0.00 | 1 | 1009.7 |
| 20260505222404 | 9 | 0 | 0.0 | 0.0 | 0.00 | 0.00 | 0.00 | 1 | 1009.7 |
| 20260505222203 | 9 | 73 | 0.0 | 0.0 | 0.00 | 0.00 | 0.00 | 1 | 1009.8 |
| 20260505222003 | 9 | 65 | 0.0 | 0.0 | 0.00 | 0.00 | 0.00 | 1 | 1009.8 |
| 20260505221803 | 9 | 0 | 0.0 | 0.0 | 0.00 | 0.00 | 0.00 | 1 | 1009.8 |
| 20260505221602 | 10 | 73 | 0.0 | 0.0 | 0.00 | 0.00 | 0.00 | 1 | 1009.8 |
| 20260505221403 | 10 | 102 | 0.0 | 0.0 | 0.00 | 0.00 | 0.00 | 1 | 1009.8 |
| 20260505221203 | 10 | 75 | 0.0 | 0.0 | 0.00 | 0.00 | 0.00 | 1 | 1009.9 |
| 20260505221002 | 10 | 79 | 0.0 | 0.0 | 0.00 | 0.00 | 0.00 | 1 | 1009.8 |
| 20260505220802 | 10 | 109 | 0.0 | 0.0 | 0.00 | 0.00 | 0.00 | 1 | 1009.9 |
| 20260505220602 | 10 | 0 | 0.0 | 0.0 | 0.00 | 0.00 | 0.00 | 1 | 1009.9 |
| 20260505220403 | 10 | 75 | 0.0 | 0.0 | 0.00 | 0.00 | 0.00 | 1 | 1009.9 |
| 20260505220202 | 10 | 62 | 0.0 | 0.0 | 0.00 | 0.00 | 0.00 | 1 | 1009.9 |
| 20260505220005 | 10 | 0 | 0.0 | 0.0 | 0.00 | 0.00 | 0.00 | 1 | 1009.9 |
| 20260505215803 | 10 | 66 | 0.0 | 0.0 | 0.00 | 0.00 | 0.00 | 1 | 1009.9 |
| 20260505215602 | 10 | 0 | 0.0 | 0.0 | 0.00 | 0.00 | 0.00 | 1 | 1009.9 |
| 20260505215402 | 10 | 0 | 0.0 | 0.0 | 0.00 | 0.00 | 0.00 | 1 | 1010.0 |
| 20260505215203 | 10 | 0 | 0.0 | 0.0 | 0.00 | 0.00 | 0.00 | 1 | 1010.0 |
| 20260505215002 | 10 | 0 | 0.0 | 0.0 | 0.00 | 0.00 | 0.00 | 1 | 1010.0 |
| 20260505214803 | 10 | 56 | 0.0 | 0.0 | 0.00 | 0.00 | 0.00 | 1 | 1010.0 |
| 20260505214603 | 10 | 58 | 0.0 | 0.0 | 0.00 | 0.00 | 0.00 | 1 | 1010.1 |
| 20260505214402 | 10 | 65 | 0.0 | 0.0 | 0.00 | 0.00 | 0.00 | 1 | 1010.1 |
| 20260505214203 | 10 | 61 | 0.0 | 0.0 | 0.00 | 0.00 | 0.00 | 1 | 1010.0 |
| 20260505214004 | 10 | 56 | 0.0 | 0.0 | 0.00 | 0.00 | 0.00 | 1 | 1010.0 |
| 20260505213803 | 10 | 0 | 0.0 | 0.0 | 0.00 | 0.00 | 0.00 | 1 | 1010.2 |
| 20260505213603 | 10 | 79 | 0.0 | 0.0 | 0.00 | 0.00 | 0.00 | 1 | 1010.1 |
| 20260505213345 | 10 | 0 | 0.0 | 0.0 | 0.00 | 0.00 | 0.00 | 1 | 1010.1 |
| 20260505213138 | 10 | 0 | 0.0 | 0.0 | 0.00 | 0.00 | 0.00 | 1 | 1010.1 |
| 20260505212932 | 10 | 63 | 0.0 | 0.0 | 0.00 | 0.00 | 0.00 | 1 | 1010.1 |
| 20260505212731 | 10 | 62 | 0.0 | 0.0 | 0.00 | 0.00 | 0.00 | 1 | 1010.1 |
| 20260505212531 | 9 | 58 | 0.0 | 0.0 | 0.00 | 0.00 | 0.00 | 1 | 1010.1 |
| 20260505212331 | 10 | 61 | 0.0 | 0.0 | 0.00 | 0.00 | 0.00 | 1 | 1010.1 |
| 20260505212131 | 9 | 75 | 0.0 | 0.0 | 0.00 | 0.00 | 0.00 | 1 | 1010.2 |
| 20260505211931 | 9 | 80 | 0.0 | 0.0 | 0.00 | 0.00 | 0.00 | 1 | 1010.2 |
| 20260505211731 | 9 | 63 | 0.0 | 0.0 | 0.00 | 0.00 | 0.00 | 1 | 1010.1 |
| 20260505211531 | 9 | 56 | 0.0 | 0.0 | 0.00 | 0.00 | 0.00 | 1 | 1010.1 |
| 20260505211326 | 9 | 73 | 0.0 | 0.0 | 0.00 | 0.00 | 0.00 | 1 | 1010.2 |
| 20260505211115 | 9 | 0 | 0.0 | 0.0 | 0.00 | 0.00 | 0.00 | 1 | 1010.2 |
| 20260505210915 | 9 | 59 | 0.0 | 0.0 | 0.00 | 0.00 | 0.00 | 1 | 1010.2 |
| 20260505210715 | 9 | 103 | 0.0 | 0.0 | 0.00 | 0.00 | 0.00 | 1 | 1010.2 |
| 20260505210516 | 9 | 68 | 0.0 | 0.0 | 0.00 | 0.00 | 0.00 | 1 | 1010.2 |
| 20260505210315 | 10 | 54 | 0.0 | 0.0 | 0.00 | 0.00 | 0.00 | 1 | 1010.2 |
| 20260505210115 | 10 | 65 | 0.0 | 0.0 | 0.00 | 0.00 | 0.00 | 1 | 1010.2 |
| 20260505205916 | 10 | 65 | 0.0 | 0.0 | 0.00 | 0.00 | 0.00 | 1 | 1010.2 |
| 20260505205716 | 10 | 51 | 0.0 | 0.0 | 0.00 | 0.00 | 0.00 | 1 | 1010.1 |
| 20260505205518 | 10 | 0 | 0.0 | 0.0 | 0.00 | 0.00 | 0.00 | 1 | 1010.2 |
| 20260505205306 | 10 | 62 | 0.0 | 0.0 | 0.00 | 0.00 | 0.00 | 1 | 1010.2 |
| 20260505205106 | 10 | 72 | 0.0 | 0.0 | 0.00 | 0.00 | 0.00 | 1 | 1010.2 |
| 20260505204906 | 10 | 63 | 0.0 | 0.0 | 0.00 | 0.00 | 0.00 | 1 | 1010.2 |
| 20260505204706 | 10 | 0 | 0.0 | 0.0 | 0.00 | 0.00 | 0.00 | 1 | 1010.2 |
| 20260505204506 | 10 | 0 | 0.0 | 0.0 | 0.00 | 0.00 | 0.00 | 1 | 1010.2 |
| 20260505204306 | 10 | 80 | 0.0 | 0.0 | 0.00 | 0.00 | 0.00 | 1 | 1010.1 |
| 20260505204105 | 10 | 58 | 0.0 | 0.0 | 0.00 | 0.00 | 0.00 | 1 | 1010.2 |
| 20260505203906 | 10 | 76 | 0.0 | 1.6 | 0.00 | 0.00 | 0.00 | 1 | 1010.2 |
| 20260505203706 | 10 | 71 | 0.0 | 1.6 | 0.00 | 0.00 | 0.00 | 1 | 1010.1 |
| 20260505203506 | 10 | 83 | 0.0 | 1.6 | 0.00 | 0.00 | 0.00 | 1 | 1010.1 |
| 20260505203305 | 10 | 69 | 0.0 | 1.6 | 0.00 | 0.00 | 0.00 | 1 | 1010.2 |
| 20260505203034 | 10 | 80 | 0.0 | 0.0 | 0.00 | 0.00 | 0.00 | 1 | 1010.2 |
| 20260505202832 | 10 | 80 | 0.0 | 0.0 | 0.00 | 0.00 | 0.00 | 1 | 1010.2 |
| 20260505202631 | 10 | 0 | 0.0 | 1.6 | 0.00 | 0.00 | 0.00 | 1 | 1010.2 |
| 20260505202431 | 10 | 71 | 0.0 | 1.6 | 0.00 | 0.00 | 0.00 | 4 | 1010.2 |
| 20260505202232 | 10 | 0 | 0.0 | 1.6 | 0.00 | 0.00 | 0.00 | 4 | 1010.2 |
| 20260505202031 | 10 | 109 | 0.0 | 4.8 | 0.00 | 0.00 | 0.00 | 4 | 1010.2 |
| 20260505201820 | 10 | 58 | 0.0 | 4.8 | 0.00 | 0.00 | 0.00 | 4 | 1010.2 |
| 20260505201617 | 10 | 79 | 0.0 | 4.8 | 0.00 | 0.00 | 0.00 | 4 | 1010.1 |
| 20260505201415 | 10 | 0 | 0.0 | 4.8 | 0.00 | 0.00 | 0.00 | 5 | 1010.2 |
| 20260505201217 | 10 | 0 | 1.6 | 4.8 | 0.00 | 0.00 | 0.00 | 6 | 1010.1 |
| 20260505201015 | 10 | 68 | 0.0 | 4.8 | 0.00 | 0.00 | 0.00 | 6 | 1010.1 |
| 20260505200816 | 10 | 56 | 0.0 | 4.8 | 0.00 | 0.00 | 0.00 | 7 | 1010.1 |
| 20260505200616 | 10 | 56 | 0.0 | 1.6 | 0.00 | 0.00 | 0.00 | 8 | 1010.1 |
| 20260505200415 | 10 | 63 | 0.0 | 1.6 | 0.00 | 0.00 | 0.00 | 8 | 1010.2 |
| 20260505200214 | 10 | 56 | 0.0 | 3.2 | 0.00 | 0.00 | 0.00 | 8 | 1010.2 |